EST,Max TemperatureF,Mean TemperatureF,Min TemperatureF,Max Dew PointF,MeanDew PointF,Min DewpointF,Max Humidity, Mean Humidity, Min Humidity, Max Sea Level PressureIn, Mean Sea Level PressureIn, Min Sea Level PressureIn, Max VisibilityMiles, Mean VisibilityMiles, Min VisibilityMiles, Max Wind SpeedMPH, Mean Wind SpeedMPH, Max Gust SpeedMPH,PrecipitationIn, CloudCover, Events, WindDirDegrees
2011-12-1,46,35,24,31,28,22,92,73,53,30.38,30.33,30.23,10,10,7,8,4,10,0.00,0,,156
2011-12-2,52,39,26,35,30,24,92,69,46,30.51,30.43,30.32,10,10,8,9,5,12,0.00,0,,155
2011-12-3,61,49,37,35,31,26,76,56,36,30.48,30.39,30.28,10,10,10,16,9,21,0.00,0,,152
2011-12-4,61,54,47,47,39,27,86,64,42,30.26,30.21,30.15,10,10,10,21,11,26,T,5,,174
2011-12-5,56,50,44,54,51,43,100,86,72,30.16,30.06,29.97,10,5,2,18,9,25,1.88,8,Rain,148
2011-12-6,44,40,36,43,38,35,100,96,92,30.12,30.07,30.04,10,6,1,14,8,17,0.24,8,Rain,353
2011-12-7,36,32,27,36,30,23,100,85,69,30.22,30.02,29.95,10,8,1,21,9,25,0.03,7,Rain-Snow,330
2011-12-8,41,33,24,30,25,23,100,77,54,30.35,30.29,30.23,10,9,5,13,6,16,0.00,0,,207
2011-12-9,45,36,26,31,26,21,85,65,45,30.40,30.30,30.23,10,10,9,14,7,18,0.00,3,,236
2011-12-10,35,28,21,28,17,13,82,63,43,30.58,30.51,30.38,10,10,10,14,4,18,0.00,1,,332
2011-12-11,42,30,17,19,16,12,84,59,34,30.60,30.53,30.44,10,10,10,8,3,13,0.00,0,,81
2011-12-12,50,38,26,34,25,17,69,54,39,30.49,30.45,30.41,10,10,10,10,4,17,0.00,2,,152
2011-12-13,50,45,40,45,40,34,92,79,65,30.50,30.43,30.35,10,9,6,8,3,10,0.00,8,,182
2011-12-14,64,55,46,52,48,43,93,79,65,30.36,30.21,30.05,10,10,7,21,10,28,T,3,Rain,178
2011-12-15,61,50,39,57,49,32,93,78,62,30.23,30.03,29.92,10,9,4,25,16,33,0.37,6,Rain,245
2011-12-16,39,36,33,29,28,27,82,76,70,30.35,30.30,30.26,10,10,10,9,5,13,0.00,7,,353
2011-12-17,39,35,30,27,25,23,85,72,59,30.38,30.31,30.25,10,10,8,13,6,17,0.00,6,,248
2011-12-18,48,37,26,32,28,24,92,73,53,30.36,30.30,30.22,10,9,4,18,8,23,0.00,0,,206
2011-12-19,52,44,35,36,32,29,76,64,52,30.21,30.16,30.12,10,10,10,21,9,28,T,6,,197
2011-12-20,56,47,38,52,42,30,86,72,58,30.15,30.03,29.90,10,10,10,16,7,22,T,5,,164
2011-12-21,61,51,40,57,48,38,93,77,61,30.03,29.83,29.73,10,9,2,29,13,37,0.34,5,Rain,218
2011-12-22,46,42,37,43,41,37,100,93,86,30.14,30.04,29.92,10,6,2,14,4,17,0.37,5,Rain,16
2011-12-23,43,40,36,41,38,35,100,95,89,30.37,30.26,30.10,10,5,2,12,3,14,0.04,8,Rain,332
2011-12-24,43,37,30,34,29,26,92,76,60,30.48,30.41,30.35,10,10,8,13,6,15,0.00,3,,230
2011-12-25,50,40,30,31,28,26,85,62,39,30.37,30.30,30.19,10,10,10,20,9,25,0.00,0,,239
2011-12-26,44,35,25,30,27,24,92,72,51,30.41,30.26,29.96,10,10,10,14,6,20,0.00,1,,127
2011-12-27,43,39,34,41,36,31,100,85,70,29.94,29.69,29.50,10,7,2,25,12,36,1.16,8,Rain-Snow,229
2011-12-28,40,36,31,32,28,26,89,74,59,30.11,30.05,29.93,10,10,10,18,8,25,0.00,4,,247
2011-12-29,50,41,31,34,31,27,92,71,50,30.01,29.91,29.81,10,10,10,25,12,31,0.00,2,,191
2011-12-30,58,50,41,45,39,33,76,68,59,29.90,29.81,29.65,10,10,10,32,15,43,T,5,,192
2011-12-31,50,45,40,38,36,34,82,69,56,30.10,30.01,29.80,10,10,10,17,8,23,0.00,5,,223